Date,TemperatureHighF,TemperatureAvgF,TemperatureLowF,DewpointHighF,DewpointAvgF,DewpointLowF,HumidityHigh,HumidityAvg,HumidityLow,PressureMaxIn,PressureMinIn,WindSpeedMaxMPH,WindSpeedAvgMPH,GustSpeedMaxMPH,PrecipitationSumIn
2013-2-1,42,30,22,35,17,13,76,61,39,30.50,30.17,17,4,18,0.00
2013-2-2,42,32,23,39,28,17,97,82,61,30.42,30.15,10,2,12,0.01
2013-2-3,54,40,29,38,31,27,99,72,38,30.20,30.06,17,3,17,0.01
2013-2-4,52,41,29,35,31,26,91,69,42,30.13,29.92,9,2,13,0.00
2013-2-5,62,50,40,48,43,35,97,78,52,29.99,29.87,9,2,10,0.01
2013-2-6,64,49,34,43,38,34,99,71,39,30.16,29.99,9,1,10,0.01
2013-2-7,58,52,47,49,45,37,93,79,60,30.03,29.84,10,2,10,0.00
2013-2-8,49,44,34,47,40,30,98,87,75,30.26,29.80,22,7,22,0.28
2013-2-9,60,44,31,37,32,28,89,66,34,30.33,30.13,13,3,15,0.01
2013-2-10,58,52,49,56,45,35,96,77,54,30.15,29.79,13,3,21,0.48
2013-2-11,60,53,45,59,47,37,97,80,55,30.09,29.86,3,0,9,0.01
2013-2-12,52,46,41,42,37,33,92,73,52,30.10,29.70,8,1,9,0.15
2013-2-13,47,43,40,44,40,36,97,90,81,30.00,29.62,5,1,10,0.10
2013-2-14,59,44,30,43,36,28,97,77,43,30.08,29.98,10,1,12,0.01
2013-2-15,58,43,33,45,36,28,97,76,52,30.10,30.02,12,1,14,0.00
2013-2-16,38,33,26,28,19,13,77,58,42,30.26,30.06,16,6,20,0.00
2013-2-17,47,33,18,23,18,13,86,57,33,30.38,30.24,8,1,11,0.00
2013-2-18,59,48,36,42,31,21,87,53,42,30.27,29.84,19,8,24,0.17
2013-2-19,50,44,30,47,32,17,98,67,27,30.21,29.83,17,6,18,0.45
2013-2-20,36,32,27,24,21,19,85,63,51,30.32,30.19,13,5,15,0.01
2013-2-21,56,42,30,47,29,19,94,64,25,30.24,29.83,13,5,16,0.73
2013-2-22,51,49,46,49,47,44,96,93,89,30.01,29.87,10,4,11,0.48
2013-2-23,53,46,40,46,43,35,98,90,74,29.94,29.80,7,2,10,0.01
2013-2-24,56,45,34,35,32,28,84,63,39,30.07,29.91,12,5,15,0.00
2013-2-25,59,49,41,46,36,29,92,63,43,29.91,29.39,25,8,29,0.02
2013-2-26,48,44,39,45,40,34,96,86,69,29.72,29.32,21,9,28,0.23
2013-2-27,52,43,39,39,35,32,81,73,60,29.90,29.72,12,6,14,0.01
2013-2-28,40,37,35,34,29,27,80,72,66,30.06,29.84,11,4,16,0.00